This is the latest recevied weather packets stored in our database for station/object wb2ifs-13. If no packets are shown the sender has not sent any weather packets the latest 10 day(s).
| Time | Temp. | Humidity | Pressure | Rain* | Wind** | Luminosity | Snow |
|---|---|---|---|---|---|---|---|
| 1777504499 | 13.89° C | 96% | 1009 hPa | 1.27 mm | - | - | - |
| 1777503599 | 13.89° C | 96% | 1008.7 hPa | 2.03 mm | - | - | - |
| 1777502699 | 13.89° C | 96% | 1008.7 hPa | 1.78 mm | - | - | - |
| 1777501803 | 13.89° C | 95% | 1008.6 hPa | 1.52 mm | - | - | - |
| 1777500900 | 13.89° C | 94% | 1008.5 hPa | 0.76 mm | - | - | - |
| 1777499999 | 14.44° C | 94% | 1009.2 hPa | 0 mm | - | - | - |
| 1777499100 | 14.44° C | 93% | 1009.2 hPa | 0 mm | - | - | - |
| 1777498199 | 14.44° C | 93% | 1009.1 hPa | 0 mm | - | - | - |
| 1777497298 | 14.44° C | 93% | 1009.2 hPa | 0 mm | - | - | - |
| 1777496399 | 14.44° C | 93% | 1009.3 hPa | 0 mm | - | - | - |
| 1777495501 | 13.89° C | 93% | 1009.3 hPa | 0 mm | - | - | - |
| 1777494599 | 14.44° C | 94% | 1009.4 hPa | 0 mm | - | - | - |
| 1777493699 | 13.89° C | 94% | 1009.7 hPa | 0 mm | - | - | - |
| 1777492799 | 13.89° C | 93% | 1010.1 hPa | 1.27 mm | - | - | - |
| 1777491899 | 14.44° C | 93% | 1010.3 hPa | 1.52 mm | - | - | - |
| 1777490999 | 14.44° C | 92% | 1010.5 hPa | 1.78 mm | - | - | - |
| 1777490099 | 15° C | 90% | 1011.3 hPa | 1.78 mm | - | - | - |
| 1777489203 | 15.56° C | 87% | 1011.5 hPa | 0.51 mm | - | - | - |
| 1777488299 | 16.11° C | 89% | 1011.4 hPa | 0.25 mm | - | - | - |
| 1777487399 | 15.56° C | 86% | 1012 hPa | 0 mm | - | - | - |
| 1777486498 | 16.11° C | 85% | 1012.2 hPa | 0 mm | - | - | - |
| 1777485599 | 16.11° C | 80% | 1012.6 hPa | 0 mm | - | - | - |
| 1777484700 | 16.11° C | 80% | 1012.7 hPa | 0 mm | - | - | - |
| 1777483799 | 16.11° C | 80% | 1013 hPa | 0 mm | - | - | - |
| 1777482899 | 16.11° C | 81% | 1013.3 hPa | 0 mm | - | - | - |
* Rain latest hour (hover to see other rain measurements)
** Current wind speed in m/s (hover to see current wind gust speed)